Seattle, WA
on Wednesday, January 30, 2013

Wednesday
Previous Day Next Day
Daily Summary
 ActualAverageRecord
Temperature
Mean Temperature °F 43°F  
Max Temperature 48°F 49°F 59°F (1992)
Min Temperature 44°F 37°F 7°F (1950)
Degree Days
Heating Degree Days 19 22  
Month to date heating degree days 805 688  
Since 1 July heating degree days 2556 2626  
Cooling Degree Days 0 0  
Month to date cooling degree days 0 0  
Year to date cooling degree days 0 0  
Moisture
Dew Point 45°F   
Average Humidity 93    
Maximum Humidity 100    
Minimum Humidity 86    
Precipitation
Precipitation 0.14 in 0.15 in 1.00 in (1952)
Month to date precipitation 4.04 5.41  
Year to date precipitation 4.04 5.41  
Snow
Snow 0.00 in in 3.00 in (1974)
Month to date snowfall T  
Since 1 July snowfall 0.6  
Snow Depth 0.00 in   
Wind
Wind Speed 9 mph   
Max Wind Speed 16 mph   
Max Gust Speed 21 mph   
Visibility 4 miles   
Events Rain   

Key: T is trace of precipitation, MM is missing value
Source: NWS Daily Summary
Time(PST)TemperatureDew PointHumidity Pressure Visibility Wind DirectionWind SpeedGust SpeedPrecipitationEvents Conditions
12:53 AM 45.0°F 42.1°F 90% 30.35 in 10.0 miles South 11.5 mph - 0.00 in   Light Drizzle
1:53 AM 45.0°F 42.1°F 90% 30.36 in 10.0 miles South 12.7 mph - 0.00 in   Light Drizzle
2:53 AM 46.0°F 43.0°F 89% 30.37 in 10.0 miles South 11.5 mph - 0.00 in   Light Drizzle
3:16 AM 46.4°F 42.8°F 87% 30.34 in 10.0 miles South 10.4 mph - 0.00 in   Light Drizzle
3:53 AM 46.0°F 43.0°F 89% 30.37 in 8.0 miles South 10.4 mph - 0.00 in   Light Drizzle
4:53 AM 46.0°F 43.0°F 89% 30.37 in 5.0 miles South 9.2 mph - 0.00 in   Light Drizzle
5:53 AM 46.0°F 44.1°F 93% 30.36 in 4.0 miles South 11.5 mph - 0.01 in   Light Drizzle
6:53 AM 46.0°F 45.0°F 96% 30.37 in 5.0 miles South 11.5 mph - 0.03 in Rain Light Rain
7:53 AM 46.0°F 44.1°F 93% 30.38 in 3.0 miles South 8.1 mph - 0.01 in   Overcast
8:16 AM 46.4°F 44.6°F 93% 30.36 in 1.5 miles South 9.2 mph - 0.00 in Rain Light Rain
8:41 AM 46.4°F 44.6°F 93% 30.36 in 1.5 miles South 8.1 mph - 0.00 in Rain Light Rain
8:53 AM 46.0°F 44.1°F 93% 30.39 in 1.5 miles South 8.1 mph - 0.00 in Rain Light Rain
9:53 AM 46.0°F 45.0°F 96% 30.40 in 2.0 miles South 8.1 mph - 0.02 in Rain Light Rain
10:53 AM 46.9°F 45.0°F 93% 30.41 in 2.0 miles South 6.9 mph - 0.00 in Rain Light Rain
11:53 AM 46.9°F 45.0°F 93% 30.41 in 2.0 miles SSW 9.2 mph - 0.00 in Rain Light Rain
12:53 PM 46.9°F 45.0°F 93% 30.41 in 2.0 miles South 9.2 mph - 0.01 in   Overcast
1:47 PM 46.4°F 44.6°F 93% 30.37 in 6.0 miles South 9.2 mph - 0.01 in Rain Light Rain
1:53 PM 46.9°F 46.0°F 97% 30.40 in 7.0 miles South 9.2 mph - 0.01 in Rain Light Rain
2:17 PM 46.4°F 46.4°F 100% 30.37 in 5.0 miles South 6.9 mph - N/A   Overcast
2:53 PM 48.0°F 46.0°F 93% 30.39 in 6.0 miles South 6.9 mph - 0.00 in   Light Drizzle
3:53 PM 48.0°F 46.0°F 93% 30.40 in 10.0 miles South 6.9 mph - 0.00 in   Light Drizzle
4:53 PM 48.0°F 46.0°F 93% 30.39 in 4.0 miles SSW 5.8 mph - 0.01 in   Light Drizzle
5:42 PM 48.2°F 46.4°F 93% 30.37 in 5.0 miles South 3.5 mph - 0.00 in Rain Light Rain
5:53 PM 48.0°F 45.0°F 89% 30.39 in 7.0 miles South 6.9 mph - 0.00 in Rain Light Rain
6:53 PM 46.9°F 46.0°F 97% 30.38 in 4.0 miles South 8.1 mph - 0.00 in   Light Drizzle
7:53 PM 46.9°F 45.0°F 93% 30.38 in 6.0 miles SSW 6.9 mph - 0.00 in   Light Drizzle
8:08 PM 46.4°F 46.4°F 100% 30.36 in 0.2 miles SSW 8.1 mph - 0.00 in   Light Drizzle
8:53 PM 46.9°F 46.0°F 97% 30.38 in 0.2 miles SSW 8.1 mph - 0.00 in   Light Drizzle
9:53 PM 46.0°F 45.0°F 96% 30.40 in 0.2 miles SW 9.2 mph - 0.00 in   Light Drizzle
10:53 PM 46.0°F 45.0°F 96% 30.40 in 0.2 miles SSW 6.9 mph - 0.03 in   Light Drizzle
11:53 PM 46.0°F 45.0°F 96% 30.40 in 0.2 miles SSW 5.8 mph - 0.01 in Rain Light Rain
Moon Phase
Jan. 30 Feb. 03 Feb. 10 Feb. 17 Feb. 25
Sunrise:07:37 AM (PST) Moon Rise:09:34 PM (PST)
Sunset:05:08 PM (PST) Moon Set:08:48 AM (PST)

Copyright © 2014 The Weather Underground, Inc.